GW5073 Weather Reports


time (UTC)temp
F
wind
direction
speed
knots
gust
knots
rain 1hr
in
rain 24hr
in
rain mn
in
humidity
%
barometer
mb
20260502224901 88 208 3.5 6.1 0.00 0.00 0.00 18 1011.7
20260502224356 89 165 3.5 5.2 0.00 0.00 0.00 18 1011.8
20260502223854 88 267 1.7 2.6 0.00 0.00 0.00 18 1011.8
20260502223352 87 35 0.0 0.0 0.00 0.00 0.00 18 1012.1
20260502222850 88 200 4.3 6.1 0.00 0.00 0.00 18 1012.1
20260502222347 86 136 7.0 7.8 0.00 0.00 0.00 18 1011.9
20260502221843 87 101 1.7 3.5 0.00 0.00 0.00 19 1012.3
20260502221339 86 31 0.9 1.7 0.00 0.00 0.00 18 1012.3
20260502220837 87 165 5.2 7.0 0.00 0.00 0.00 18 1012.6
20260502220332 86 189 4.3 5.2 0.00 0.00 0.00 19 1012.5
20260502215829 87 108 3.5 3.5 0.00 0.00 0.00 18 1012.7
20260502215327 87 127 7.8 7.8 0.00 0.00 0.00 18 1012.7
20260502214823 87 107 7.8 9.6 0.00 0.00 0.00 18 1012.9
20260502214320 87 67 7.0 9.6 0.00 0.00 0.00 18 1012.9
20260502213817 87 49 5.2 7.0 0.00 0.00 0.00 18 1012.9
20260502213314 87 102 7.0 7.8 0.00 0.00 0.00 18 1013.0
20260502212813 87 249 2.6 3.5 0.00 0.00 0.00 18 1013.0
20260502212311 88 139 9.6 9.6 0.00 0.00 0.00 18 1013.1
20260502211808 87 154 5.2 5.2 0.00 0.00 0.00 18 1013.2
20260502211303 88 148 5.2 6.1 0.00 0.00 0.00 18 1013.3
20260502210801 88 109 7.8 9.6 0.00 0.00 0.00 18 1013.2
20260502210259 87 358 4.3 6.1 0.00 0.00 0.00 18 1013.2
20260502205755 86 108 4.3 5.2 0.00 0.00 0.00 19 1013.5
20260502205251 86 136 4.3 6.1 0.00 0.00 0.00 18 1013.6
20260502204749 86 92 5.2 6.1 0.00 0.00 0.00 19 1013.5
20260502204246 86 128 8.7 9.6 0.00 0.00 0.00 19 1013.5
20260502203743 88 146 9.6 12.2 0.00 0.00 0.00 18 1013.7
20260502203241 87 31 0.9 0.9 0.00 0.00 0.00 19 1013.8
20260502202735 87 68 7.0 8.7 0.00 0.00 0.00 19 1013.8
20260502202234 87 93 4.3 6.1 0.00 0.00 0.00 17 1013.9
20260502201731 86 146 2.6 3.5 0.00 0.00 0.00 16 1014.0
20260502201227 85 139 7.8 8.7 0.00 0.00 0.00 20 1014.0
20260502200723 85 276 1.7 2.6 0.00 0.00 0.00 18 1014.0
20260502200220 87 91 7.8 8.7 0.00 0.00 0.00 19 1014.0
20260502195718 87 56 3.5 5.2 0.00 0.00 0.00 20 1014.1
20260502195214 86 66 2.6 3.5 0.00 0.00 0.00 20 1014.5
20260502194711 86 73 7.8 13.0 0.00 0.00 0.00 20 1014.4
20260502194209 85 76 8.7 9.6 0.00 0.00 0.00 22 1014.1
20260502193704 84 115 5.2 7.0 0.00 0.00 0.00 19 1014.4
20260502193202 85 131 11.3 12.2 0.00 0.00 0.00 20 1014.4
20260502192656 85 114 7.8 11.3 0.00 0.00 0.00 21 1014.6
20260502192154 84 81 5.2 7.8 0.00 0.00 0.00 23 1014.5
20260502191651 84 72 1.7 1.7 0.00 0.00 0.00 22 1014.6
20260502191148 85 104 4.3 7.0 0.00 0.00 0.00 20 1014.7
20260502190646 84 129 12.2 14.8 0.00 0.00 0.00 22 1014.6
20260502190139 84 122 7.8 11.3 0.00 0.00 0.00 23 1015.0
20260502185638 83 86 5.2 7.0 0.00 0.00 0.00 23 1014.9
20260502185135 83 157 7.0 8.7 0.00 0.00 0.00 22 1015.0
20260502184631 84 123 9.6 9.6 0.00 0.00 0.00 23 1015.2
20260502184127 83 122 10.4 13.0 0.00 0.00 0.00 23 1015.1
20260502183623 84 93 8.7 11.3 0.00 0.00 0.00 23 1015.3
20260502183120 84 159 13.0 14.8 0.00 0.00 0.00 21 1015.1
20260502182614 83 92 5.2 7.0 0.00 0.00 0.00 22 1015.1
20260502182110 84 96 13.0 14.8 0.00 0.00 0.00 21 1015.6
20260502181609 84 116 11.3 12.2 0.00 0.00 0.00 21 1015.4
20260502181107 83 84 4.3 6.1 0.00 0.00 0.00 21 1015.5
20260502180604 84 109 10.4 12.2 0.00 0.00 0.00 21 1015.5
20260502170518 82 115 12.2 13.9 0.00 0.00 0.00 22 1015.7
20260502164002 81 68 6.1 8.7 0.00 0.00 0.00 21 1015.7
20260502163457 80 112 15.6 20.9 0.00 0.00 0.00 21 1015.5
20260502162955 80 94 9.6 9.6 0.00 0.00 0.00 21 1015.6
20260502162452 80 128 10.4 12.2 0.00 0.00 0.00 22 1015.6
20260502161949 80 104 10.4 13.9 0.00 0.00 0.00 22 1015.6
20260502161445 80 92 13.9 16.5 0.00 0.00 0.00 21 1015.4
20260502160944 80 106 13.0 15.6 0.00 0.00 0.00 22 1015.4
20260502160441 80 104 11.3 13.0 0.00 0.00 0.00 22 1015.3
20260502151929 78 112 9.6 11.3 0.00 0.00 0.00 22 1015.2
20260502151426 78 86 2.6 7.0 0.00 0.00 0.00 22 1015.0
20260502150924 78 105 10.4 11.3 0.00 0.00 0.00 22 1015.1
20260502150420 78 115 8.7 9.6 0.00 0.00 0.00 22 1015.0
20260502130306 66 77 0.9 1.7 0.00 0.00 0.00 27 1013.5
20260502123751 66 67 1.7 1.7 0.00 0.00 0.00 27 1013.1
20260502123248 65 33 0.0 0.9 0.00 0.00 0.00 27 1012.9
20260502122744 67 36 0.0 0.9 0.00 0.00 0.00 26 1012.8
20260502122241 67 45 0.0 0.9 0.00 0.00 0.00 27 1012.9
20260502121739 67 32 0.0 0.0 0.00 0.00 0.00 27 1012.9
20260502121237 67 32 0.0 0.9 0.00 0.00 0.00 26 1012.8
20260502120733 67 36 0.0 0.9 0.00 0.00 0.00 26 1013.1
20260502120230 67 34 0.9 0.9 0.00 0.00 0.00 26 1012.9
20260502115728 67 40 0.0 0.0 0.00 0.00 0.00 26 1013.0
20260502115224 67 33 0.0 0.9 0.00 0.00 0.00 26 1012.9
20260502114720 68 30 1.7 1.7 0.00 0.00 0.00 26 1012.9
20260502114218 68 41 0.9 0.9 0.00 0.00 0.00 26 1012.8
20260502113714 68 32 0.9 0.9 0.00 0.00 0.00 26 1012.9
20260502113212 68 35 0.0 0.9 0.00 0.00 0.00 26 1012.8
20260502112710 69 337 1.7 2.6 0.00 0.00 0.00 25 1012.8
20260502112208 69 19 0.9 0.9 0.00 0.00 0.00 25 1012.8
20260502111705 69 8 1.7 1.7 0.00 0.00 0.00 26 1012.9
20260502111202 68 12 0.9 0.9 0.00 0.00 0.00 26 1012.6
20260502110700 69 5 2.6 3.5 0.00 0.00 0.00 26 1012.8
20260502110157 69 33 0.9 1.7 0.00 0.00 0.00 25 1012.8
20260502105654 69 39 0.9 0.9 0.00 0.00 0.00 26 1012.8
20260502105151 70 33 0.9 0.9 0.00 0.00 0.00 26 1012.7
20260502104648 70 27 0.9 0.9 0.00 0.00 0.00 26 1012.9
20260502104146 71 27 0.0 0.9 0.00 0.00 0.00 25 1012.8
20260502103643 72 34 0.0 0.0 0.00 0.00 0.00 25 1012.8
20260502103141 72 44 0.9 0.9 0.00 0.00 0.00 25 1012.7
20260502102638 71 25 0.9 1.7 0.00 0.00 0.00 25 1012.5
20260502102134 71 50 0.9 0.9 0.00 0.00 0.00 25 1012.6
20260502101632 71 43 0.0 0.0 0.00 0.00 0.00 25 1012.5
20260502101131 72 286 1.7 1.7 0.00 0.00 0.00 24 1012.7
20260502100629 74 31 0.9 0.9 0.00 0.00 0.00 23 1012.6
20260502100127 75 41 0.0 0.9 0.00 0.00 0.00 23 1012.6
20260502091101 75 17 0.9 1.7 0.00 0.00 0.00 22 1012.1
20260502090558 75 98 1.7 3.5 0.00 0.00 0.00 22 1012.2
20260502071453 75 45 2.6 3.5 0.00 0.00 0.00 19 1012.3
20260502070951 75 343 5.2 7.0 0.00 0.00 0.00 18 1012.6
20260502070449 75 331 6.1 6.1 0.00 0.00 0.00 19 1012.2
20260502065947 76 27 2.6 2.6 0.00 0.00 0.00 19 1012.2
20260502065445 77 25 2.6 2.6 0.00 0.00 0.00 19 1012.1
20260502064943 77 324 1.7 3.5 0.00 0.00 0.00 19 1012.1
20260502064440 77 7 2.6 3.5 0.00 0.00 0.00 19 1012.0
20260502063937 77 24 1.7 1.7 0.00 0.00 0.00 19 1012.2
20260502063435 77 359 2.6 2.6 0.00 0.00 0.00 18 1012.1
20260502062932 77 355 3.5 6.1 0.00 0.00 0.00 18 1012.2
20260502062429 78 35 1.7 1.7 0.00 0.00 0.00 17 1011.9
20260502061928 78 25 1.7 2.6 0.00 0.00 0.00 17 1011.9
20260502061426 78 33 2.6 2.6 0.00 0.00 0.00 17 1012.0
20260502060921 79 76 1.7 2.6 0.00 0.00 0.00 17 1011.9
20260502060417 79 11 2.6 3.5 0.00 0.00 0.00 16 1011.9
20260502055914 80 13 4.3 7.0 0.00 0.00 0.00 16 1011.8
20260502055411 79 29 3.5 7.0 0.00 0.00 0.00 16 1011.8
20260502054906 78 356 1.7 3.5 0.00 0.00 0.00 17 1011.7
20260502054403 77 326 7.0 7.8 0.00 0.00 0.00 17 1012.0
20260502053900 75 339 7.8 8.7 0.00 0.00 0.00 17 1011.9
20260502053357 75 290 4.3 5.2 0.00 0.00 0.00 17 1011.6
20260502052854 74 351 4.3 5.2 0.00 0.00 0.00 17 1011.8
20260502052353 75 356 3.5 3.5 0.00 0.00 0.00 17 1011.9
20260502051850 75 344 3.5 3.5 0.00 0.00 0.00 17 1011.7
20260502051349 75 324 3.5 3.5 0.00 0.00 0.00 17 1011.8
20260502050845 76 328 3.5 3.5 0.00 0.00 0.00 17 1011.5
20260502050341 76 340 5.2 5.2 0.00 0.00 0.00 16 1011.4
20260502045838 77 336 3.5 3.5 0.00 0.00 0.00 16 1011.6
20260502045335 77 328 5.2 5.2 0.00 0.00 0.00 16 1011.5
20260502044832 77 331 3.5 3.5 0.00 0.00 0.00 16 1011.4
20260502044328 78 17 1.7 2.6 0.00 0.00 0.00 16 1011.2
20260502043826 78 336 5.2 6.1 0.00 0.00 0.00 16 1011.2
20260502043323 79 339 5.2 7.0 0.00 0.00 0.00 16 1011.2
20260502042822 80 312 6.1 7.8 0.00 0.00 0.00 15 1011.0
20260502042320 80 347 6.1 7.8 0.00 0.00 0.00 15 1011.1
20260502041817 80 337 4.3 6.1 0.00 0.00 0.00 15 1010.9
20260502041314 78 351 5.2 7.0 0.00 0.00 0.00 15 1010.9
20260502040811 78 12 0.9 0.9 0.00 0.00 0.00 17 1010.9
20260502040308 79 105 0.9 1.7 0.00 0.00 0.00 16 1010.6
20260502035804 79 35 0.0 0.9 0.00 0.00 0.00 16 1010.6
20260502035301 79 37 0.9 0.9 0.00 0.00 0.00 16 1010.5
20260502034758 80 325 3.5 3.5 0.00 0.00 0.00 16 1010.6
20260502034257 79 27 0.0 0.0 0.00 0.00 0.00 16 1010.6
20260502033754 80 32 0.0 0.9 0.00 0.00 0.00 16 1010.5
20260502033252 80 341 1.7 2.6 0.00 0.00 0.00 16 1010.4
20260502032748 81 318 3.5 3.5 0.00 0.00 0.00 16 1010.3
20260502032244 80 216 3.5 3.5 0.00 0.00 0.00 16 1010.2
20260502031743 80 30 0.0 0.9 0.00 0.00 0.00 16 1010.2
20260502031240 81 26 0.9 0.9 0.00 0.00 0.00 16 1010.0
20260502030739 81 14 0.9 0.9 0.00 0.00 0.00 16 1009.9
20260502030236 81 359 0.9 0.9 0.00 0.00 0.00 16 1009.9
20260502025733 81 33 1.7 1.7 0.00 0.00 0.00 16 1009.9
20260502025231 81 340 2.6 3.5 0.00 0.00 0.00 16 1009.9
20260502024729 82 13 1.7 1.7 0.00 0.00 0.00 16 1009.8
20260502024226 82 9 1.7 2.6 0.00 0.00 0.00 16 1010.0
20260502023724 82 68 1.7 1.7 0.00 0.00 0.00 15 1009.9
20260502023221 83 30 3.5 3.5 0.00 0.00 0.00 15 1009.7
20260502022719 83 307 3.5 3.5 0.00 0.00 0.00 15 1009.7
20260502022215 84 359 5.2 6.1 0.00 0.00 0.00 15 1009.4
20260502021713 84 328 4.3 6.1 0.00 0.00 0.00 15 1009.5
20260502021210 84 325 3.5 3.5 0.00 0.00 0.00 15 1009.7
20260502020707 84 349 2.6 2.6 0.00 0.00 0.00 15 1009.7
20260502020204 85 324 3.5 5.2 0.00 0.00 0.00 14 1009.4
20260502015702 85 296 4.3 6.1 0.00 0.00 0.00 14 1009.3
20260502015157 86 338 9.6 9.6 0.00 0.00 0.00 14 1009.4
20260502014655 86 340 5.2 8.7 0.00 0.00 0.00 14 1009.4
20260502014152 86 336 4.3 5.2 0.00 0.00 0.00 14 1009.5
20260502013648 86 324 7.8 9.6 0.00 0.00 0.00 14 1009.4
20260502013143 87 302 3.5 3.5 0.00 0.00 0.00 14 1009.2
20260502012641 87 302 5.2 7.8 0.00 0.00 0.00 14 1009.2
20260502012139 87 51 3.5 3.5 0.00 0.00 0.00 14 1009.1
20260502011636 87 245 4.3 6.1 0.00 0.00 0.00 14 1009.3
20260502011131 87 227 5.2 6.1 0.00 0.00 0.00 14 1009.4
20260502010629 87 309 2.6 2.6 0.00 0.00 0.00 14 1009.0
20260502010126 88 348 3.5 5.2 0.00 0.00 0.00 14 1009.2
20260502005623 88 315 4.3 5.2 0.00 0.00 0.00 14 1009.2
20260502005121 88 273 6.1 6.1 0.00 0.00 0.00 14 1009.2
20260502004616 89 330 5.2 6.1 0.00 0.00 0.00 14 1009.2
20260502004113 89 348 5.2 6.1 0.00 0.00 0.00 14 1009.3
20260502003611 90 6 0.9 1.7 0.00 0.00 0.00 14 1009.1
20260502003108 89 11 1.7 2.6 0.00 0.00 0.00 15 1009.2
20260502002604 87 86 1.7 1.7 0.00 0.00 0.00 15 1009.2
20260502002102 87 242 7.8 7.8 0.00 0.00 0.00 15 1009.1
20260502001559 88 242 7.8 8.7 0.00 0.00 0.00 15 1009.1
20260502001056 87 42 0.9 0.9 0.00 0.00 0.00 15 1009.3
20260502000554 88 107 2.6 2.6 0.00 0.00 0.00 16 1009.5
20260502000051 87 185 2.6 2.6 0.00 0.00 0.00 16 1009.3
20260501235547 88 163 3.5 3.5 0.00 0.00 0.00 16 1009.4
20260501235043 87 261 3.5 3.5 0.00 0.00 0.00 16 1009.4
20260501234539 87 242 6.1 7.0 0.00 0.00 0.00 17 1009.5
20260501234037 86 179 4.3 6.1 0.00 0.00 0.00 18 1009.3
20260501233535 87 128 3.5 3.5 0.00 0.00 0.00 18 1009.5
20260501233031 87 233 6.1 7.0 0.00 0.00 0.00 18 1009.2
20260501232527 88 232 5.2 6.1 0.00 0.00 0.00 17 1009.6
20260501232025 87 239 5.2 7.0 0.00 0.00 0.00 18 1009.6
20260501231523 87 265 3.5 3.5 0.00 0.00 0.00 19 1009.8
20260501231021 86 160 3.5 6.1 0.00 0.00 0.00 20 1009.5
20260501230520 86 144 5.2 6.1 0.00 0.00 0.00 20 1009.5
20260501230017 86 197 3.5 5.2 0.00 0.00 0.00 20 1009.5
20260501225515 87 193 7.0 8.7 0.00 0.00 0.00 20 1009.7